Weather Roundup
Issued by NWS Springfield, MO

Current Version | Previous Version | Text Only | Print | Product List | Glossary On
Versions: 1 2 3 4 5 6 7 8 9 10 11 12 13 14 15 16 17 18 19 20 21 22 23 24 25 26 27 28 29 30 31 32 33 34 35 36 37 38 39 40 41 42 43 44 45 46 47 48 49 50
000
NZUS99 KSGF 250407
HRRSGF

HOURLY WEATHER
NATIONAL WEATHER SERVICE SPRINGFIELD MO
1100 PM CDT SUN JUL 24 2016

......SGF CWA......

CITY           SKY/WX    TMP DP  RH WIND       PRES   REMARKS
SPRINGFIELD    CLEAR     85  75  72 S6        29.99R HX  93
JOPLIN         CLEAR     84  74  71 SE6       29.97R HX  91
WEST PLAINS    CLEAR     81  73  76 CALM      30.02F
ROLLA          CLEAR     81  74  79 SW8       29.96F
OSAGE BEACH    PTCLDY    83  80  91 CALM      29.96S HX  95
BRANSON        CLEAR     81  72  74 CALM      30.01S

......SURROUNDING SGF CWA......

CITY           SKY/WX    TMP DP  RH WIND       PRES   REMARKS
CHANUTE        CLOUDY    85  75  72 SE5       29.96R HX  93
PARSONS        CLOUDY    84  75  74 SE3       29.97R HX  92
COFFEYVILLE    CLOUDY    88  74  63 SE6       29.95R HX  96
EMPORIA        PTCLDY    81  76  84 NE8       29.99R
GROVE OK       CLEAR     84  77  79 SE3       29.98S HX  94
ROGERS AR      CLEAR     83  75  77 S5        30.01S HX  90
SILOAM SPRINGS CLEAR     81  66  61 SW3       30.02R
HARRISON AR    CLEAR     77  71  82 SE3       30.01S
NEAR YELLVILLE CLEAR     81  72  74 CALM      29.95F

......KANSAS AND MISSOURI......

CITY           SKY/WX    TMP DP  RH WIND       PRES   REMARKS
KANSAS CTY INT CLOUDY    81  69  67 E8        30.02R
DOWNTOWN KC    CLOUDY    83  70  64 NE7       29.99R
COLUMBIA       CLOUDY    83  79  88 NW6       29.95S HX  94
SEDALIA        TSTM      74  68  81 W22G38    30.03R
ST JOSEPH      CLOUDY    75  67  76 VRB3      30.00R
ST LOUIS       CLOUDY    89  78  70 S12       29.92R HX 103
SPIRIT OF STL  CLEAR     86  80  82 SW6       29.91R HX 101
KIRKSVILLE     CLOUDY    76  72  87 N5        29.97F
WICHITA        PTCLDY    88  70  55 SE8       29.96R HX  93
TOPEKA         CLOUDY    79  69  71 NE3       30.00R
OLATHE         CLOUDY    81  72  74 NE10      30.00R

......TENNESSEE......

CITY           SKY/WX    TMP DP  RH WIND       PRES   REMARKS
MEMPHIS        PTCLDY    82  75  79 S3        29.97F
NASHVILLE      MOCLDY    82  72  71 S3        30.00F

......ARKANSAS.......

CITY           SKY/WX    TMP DP  RH WIND       PRES   REMARKS
FAYETTEVILLE   CLEAR     79  70  74 SE3       30.01R
FT SMITH       CLEAR     80  71  74 E7        29.95S
LITTLE ROCK    CLOUDY    80  70  71 SW5       29.96F

......OKLAHOMA.......

CITY           SKY/WX    TMP DP  RH WIND       PRES   REMARKS
TULSA          CLEAR     89  74  60 SE3       29.93R HX  98
PONCA CITY     CLEAR     89  71  55 SE13G23   29.95R HX  95
MCALESTER      CLOUDY    83  71  67 SE5       29.95S
OKLAHOMA CITY  CLEAR     84  72  67 S5        29.97R

......IOWA............

CITY           SKY/WX    TMP DP  RH WIND       PRES   REMARKS
DES MOINES     CLOUDY    77  66  68 N7        30.01R
QUAD CITIES    CLOUDY    78  68  71 NW6       29.93R

......ILLINOIS........

CITY           SKY/WX    TMP DP  RH WIND       PRES   REMARKS
QUINCY         MOCLDY    78  71  79 N6        29.95R
CHICAGO        CLOUDY    78  71  79 SW7       29.89S



USA.gov is the U.S. government's official web portal to all federal, state and local government web resources and services.